ARG1816 SABE-SAVE

Flight info

Callsign ARG1816
Flight time 2h 15m
Altitude FL380
Route PAL9 TORUL UT654 BIXIM UW41 NITLO
Aircraft B38M/M-SDE2E3FGHIRWXY/LB1

Departure

Time 2026-04-25 17:44
Airport Aeroparque Jorge Newbery (SABE)

Arrival

Time 2026-04-25 19:59
Airport Esquel Brigadier Antonio Parodi International Airport (SAVE)
Time Latitude Longitude Altitude Speed Heading
2026-04-25 17:25 -34.55701 -58.41445 28 ft 0 kts 18°
2026-04-25 17:36 -34.55710 -58.41449 28 ft 4 kts 11°
2026-04-25 17:36 -34.55735 -58.41447 28 ft 4 kts 335°
2026-04-25 17:36 -34.55756 -58.41429 28 ft 4 kts 309°
2026-04-25 17:36 -34.55765 -58.41414 28 ft 0 kts 303°
2026-04-25 17:40 -34.55761 -58.41421 28 ft 2 kts 303°
2026-04-25 17:40 -34.55748 -58.41448 28 ft 5 kts 298°
2026-04-25 17:41 -34.55726 -58.41499 28 ft 8 kts 292°
2026-04-25 17:41 -34.55746 -58.41567 28 ft 11 kts 219°
2026-04-25 17:41 -34.55776 -58.41643 28 ft 11 kts 278°
2026-04-25 17:41 -34.55742 -58.41741 28 ft 14 kts 298°
2026-04-25 17:42 -34.55684 -58.41851 28 ft 17 kts 304°
2026-04-25 17:42 -34.55613 -58.41977 28 ft 19 kts 304°
2026-04-25 17:42 -34.55535 -58.42111 28 ft 20 kts 307°
2026-04-25 17:42 -34.55448 -58.42250 28 ft 21 kts 307°
2026-04-25 17:43 -34.55382 -58.42355 28 ft 12 kts 307°
2026-04-25 17:43 -34.55360 -58.42453 28 ft 13 kts 275°
2026-04-25 17:43 -34.55414 -58.42491 28 ft 11 kts 133°
2026-04-25 17:43 -34.55493 -58.42350 30 ft 48 kts 124°
2026-04-25 17:44 -34.55822 -58.41759 27 ft 119 kts 124°
2026-04-25 17:44 -34.56396 -58.40735 36 ft 171 kts 123°
2026-04-25 17:44 -34.57029 -58.39551 677 ft 173 kts 122°
2026-04-25 17:44 -34.57682 -58.38261 1282 ft 180 kts 115°
2026-04-25 17:45 -34.57939 -58.36779 1935 ft 190 kts 88°
2026-04-25 17:45 -34.57897 -58.36239 2058 ft 197 kts 79°
2026-04-25 17:45 -34.56796 -58.33545 2732 ft 235 kts 60°
2026-04-25 17:45 -34.55950 -58.31719 3210 ft 255 kts 60°
2026-04-25 17:46 -34.55018 -58.29901 4093 ft 263 kts 49°
2026-04-25 17:46 -34.53500 -58.28593 4618 ft 279 kts 16°
2026-04-25 17:46 -34.51608 -58.28435 5540 ft 274 kts 346°
2026-04-25 17:46 -34.49877 -58.29355 6314 ft 276 kts 317°
2026-04-25 17:47 -34.48739 -58.31160 7188 ft 269 kts 289°
2026-04-25 17:47 -34.48454 -58.33363 8052 ft 267 kts 262°
2026-04-25 17:47 -34.49056 -58.35469 8891 ft 270 kts 237°
2026-04-25 17:47 -34.50104 -58.37377 9709 ft 275 kts 242°
2026-04-25 17:48 -34.51986 -58.41589 10776 ft 302 kts 243°
2026-04-25 17:48 -34.53014 -58.43887 11184 ft 318 kts 243°
2026-04-25 17:48 -34.54096 -58.46274 11782 ft 326 kts 243°
2026-04-25 17:49 -34.55202 -58.48676 12629 ft 328 kts 243°
2026-04-25 17:49 -34.56327 -58.51094 13413 ft 332 kts 243°
2026-04-25 17:49 -34.57470 -58.53534 14143 ft 335 kts 243°
2026-04-25 17:49 -34.58630 -58.55988 14851 ft 338 kts 242°
2026-04-25 17:50 -34.60189 -58.58158 15585 ft 348 kts 222°
2026-04-25 17:50 -34.62356 -58.59534 16320 ft 361 kts 201°
2026-04-25 17:50 -34.64886 -58.59895 17005 ft 376 kts 180°
2026-04-25 17:50 -34.67459 -58.59139 17714 ft 387 kts 165°
2026-04-25 17:51 -34.70029 -58.58131 18280 ft 391 kts 169°
2026-04-25 17:51 -34.72685 -58.57703 18800 ft 381 kts 191°
2026-04-25 17:51 -34.75178 -58.58504 19261 ft 368 kts 214°
2026-04-25 17:51 -34.77230 -58.60273 19767 ft 360 kts 230°
2026-04-25 17:52 -34.78900 -58.62512 20308 ft 359 kts 234°
2026-04-25 17:52 -34.79448 -58.63273 20493 ft 360 kts 234°
2026-04-25 17:52 -34.82185 -58.67101 21492 ft 362 kts 235°
2026-04-25 17:52 -34.83831 -58.69415 22075 ft 363 kts 235°
2026-04-25 17:53 -34.85486 -58.71744 22642 ft 365 kts 236°
2026-04-25 17:53 -34.87147 -58.74085 23204 ft 367 kts 236°
2026-04-25 17:53 -34.88753 -58.76350 23698 ft 369 kts 236°
2026-04-25 17:53 -34.90432 -58.78720 24152 ft 370 kts 236°
2026-04-25 17:54 -34.92109 -58.81091 24610 ft 371 kts 237°
2026-04-25 17:54 -34.93796 -58.83477 25048 ft 373 kts 237°
2026-04-25 17:54 -34.95488 -58.85871 25509 ft 374 kts 237°
2026-04-25 17:54 -34.97185 -58.88275 25940 ft 375 kts 237°
2026-04-25 17:55 -34.98885 -58.90684 26367 ft 377 kts 237°
2026-04-25 17:55 -35.00592 -58.93106 26787 ft 378 kts 238°
2026-04-25 17:55 -35.02304 -58.95536 27203 ft 380 kts 238°
2026-04-25 17:55 -35.04025 -58.97982 27600 ft 381 kts 238°
2026-04-25 17:56 -35.05754 -59.00440 27996 ft 383 kts 238°
2026-04-25 17:56 -35.07486 -59.02904 28388 ft 384 kts 238°
2026-04-25 17:56 -35.09226 -59.05382 28776 ft 386 kts 238°
2026-04-25 17:56 -35.10972 -59.07871 29156 ft 387 kts 239°
2026-04-25 17:57 -35.12723 -59.10369 29520 ft 389 kts 239°
2026-04-25 17:57 -35.14484 -59.12882 29870 ft 391 kts 239°
2026-04-25 17:57 -35.16252 -59.15407 30199 ft 392 kts 239°
2026-04-25 17:57 -35.16843 -59.16252 30301 ft 393 kts 239°
2026-04-25 17:58 -35.19798 -59.20481 30846 ft 393 kts 239°
2026-04-25 17:58 -35.21568 -59.23018 31268 ft 391 kts 239°
2026-04-25 17:58 -35.23324 -59.25537 31696 ft 389 kts 239°
2026-04-25 17:58 -35.25072 -59.28045 32115 ft 387 kts 240°
2026-04-25 17:59 -35.26810 -59.30541 32540 ft 385 kts 240°
2026-04-25 17:59 -35.28541 -59.33028 32957 ft 383 kts 240°
2026-04-25 17:59 -35.30262 -59.35503 33355 ft 382 kts 240°
2026-04-25 17:59 -35.31975 -59.37966 33757 ft 380 kts 240°
2026-04-25 18:00 -35.33682 -59.40421 34110 ft 379 kts 240°
2026-04-25 18:00 -35.35384 -59.42871 34401 ft 378 kts 240°
2026-04-25 18:00 -35.36926 -59.45418 34655 ft 372 kts 244°
2026-04-25 18:00 -35.38413 -59.48004 34889 ft 372 kts 244°
2026-04-25 18:01 -35.39914 -59.50587 35124 ft 373 kts 244°
2026-04-25 18:01 -35.41421 -59.53165 35367 ft 373 kts 244°
2026-04-25 18:01 -35.42933 -59.55748 35608 ft 373 kts 244°
2026-04-25 18:01 -35.44445 -59.58329 35839 ft 373 kts 243°
2026-04-25 18:02 -35.45956 -59.60908 36063 ft 374 kts 243°
2026-04-25 18:02 -35.47469 -59.63495 36268 ft 374 kts 243°
2026-04-25 18:02 -35.48984 -59.66086 36478 ft 374 kts 243°
2026-04-25 18:02 -35.50497 -59.68675 36683 ft 375 kts 243°
2026-04-25 18:03 -35.52014 -59.71274 36887 ft 375 kts 243°
2026-04-25 18:03 -35.53528 -59.73868 37073 ft 375 kts 243°
2026-04-25 18:03 -35.55042 -59.76465 37258 ft 375 kts 243°
2026-04-25 18:03 -35.56559 -59.79070 37449 ft 375 kts 243°
2026-04-25 18:04 -35.58073 -59.81670 37636 ft 375 kts 243°
2026-04-25 18:04 -35.59585 -59.84270 37810 ft 375 kts 243°
2026-04-25 18:04 -35.61102 -59.86879 37960 ft 375 kts 242°
2026-04-25 18:05 -35.64130 -59.92094 37988 ft 375 kts 242°
2026-04-25 18:05 -35.67152 -59.97307 37995 ft 375 kts 242°
2026-04-25 18:06 -35.70172 -60.02524 37994 ft 375 kts 242°
2026-04-25 18:06 -35.73192 -60.07749 38001 ft 376 kts 242°
2026-04-25 18:07 -35.76213 -60.12984 37999 ft 376 kts 242°
2026-04-25 18:07 -35.79236 -60.18229 37993 ft 376 kts 242°
2026-04-25 18:08 -35.82260 -60.23486 37998 ft 377 kts 242°
2026-04-25 18:08 -35.85284 -60.28748 37996 ft 377 kts 242°
2026-04-25 18:09 -35.88306 -60.34017 37998 ft 378 kts 242°
2026-04-25 18:09 -35.91333 -60.39302 38000 ft 378 kts 242°
2026-04-25 18:10 -35.94357 -60.44591 37999 ft 378 kts 242°
2026-04-25 18:10 -35.97383 -60.49890 38002 ft 379 kts 242°
2026-04-25 18:11 -36.00410 -60.55199 38003 ft 379 kts 242°
2026-04-25 18:11 -36.03437 -60.60516 38002 ft 379 kts 242°
2026-04-25 18:12 -36.06464 -60.65841 38005 ft 380 kts 242°
2026-04-25 18:12 -36.09493 -60.71175 38000 ft 380 kts 242°
2026-04-25 18:13 -36.12519 -60.76522 38009 ft 380 kts 242°
2026-04-25 18:13 -36.15527 -60.81891 38008 ft 381 kts 242°
2026-04-25 18:14 -36.20043 -60.89956 38009 ft 381 kts 242°
2026-04-25 18:14 -36.23053 -60.95343 38008 ft 381 kts 242°
2026-04-25 18:15 -36.26064 -61.00738 37997 ft 382 kts 242°
2026-04-25 18:15 -36.29074 -61.06142 38003 ft 382 kts 242°
2026-04-25 18:16 -36.32086 -61.11557 38011 ft 382 kts 242°
2026-04-25 18:17 -36.36604 -61.19693 38001 ft 383 kts 242°
2026-04-25 18:17 -36.39613 -61.25129 38005 ft 383 kts 242°
2026-04-25 18:18 -36.42620 -61.30572 38003 ft 383 kts 242°
2026-04-25 18:18 -36.45631 -61.36029 38001 ft 384 kts 242°
2026-04-25 18:19 -36.48642 -61.41493 38005 ft 384 kts 242°
2026-04-25 18:19 -36.51649 -61.46961 38005 ft 384 kts 242°
2026-04-25 18:20 -36.54659 -61.52444 38002 ft 385 kts 242°
2026-04-25 18:20 -36.57669 -61.57932 38005 ft 385 kts 242°
2026-04-25 18:21 -36.60675 -61.63424 37998 ft 385 kts 242°
2026-04-25 18:21 -36.63681 -61.68926 37997 ft 385 kts 242°
2026-04-25 18:22 -36.66685 -61.74433 38000 ft 385 kts 242°
2026-04-25 18:22 -36.69691 -61.79950 37998 ft 386 kts 242°
2026-04-25 18:23 -36.72693 -61.85471 37999 ft 386 kts 242°
2026-04-25 18:23 -36.75695 -61.91001 37998 ft 386 kts 242°
2026-04-25 18:24 -36.78693 -61.96533 38000 ft 386 kts 242°
2026-04-25 18:24 -36.81696 -62.02081 37995 ft 386 kts 242°
2026-04-25 18:25 -36.84696 -62.07635 37993 ft 387 kts 242°
2026-04-25 18:25 -36.87698 -62.13200 37994 ft 387 kts 242°
2026-04-25 18:26 -36.90698 -62.18771 37994 ft 387 kts 242°
2026-04-25 18:26 -36.93698 -62.24352 37992 ft 388 kts 242°
2026-04-25 18:27 -36.96697 -62.29940 37996 ft 388 kts 241°
2026-04-25 18:27 -36.99694 -62.35534 37994 ft 388 kts 241°
2026-04-25 18:28 -37.02693 -62.41140 37996 ft 389 kts 241°
2026-04-25 18:28 -37.05694 -62.46760 37994 ft 389 kts 241°
2026-04-25 18:29 -37.10191 -62.55198 37993 ft 390 kts 241°
2026-04-25 18:30 -37.16191 -62.66492 37994 ft 390 kts 241°
2026-04-25 18:30 -37.19190 -62.72151 37992 ft 391 kts 241°
2026-04-25 18:31 -37.22195 -62.77830 37985 ft 392 kts 241°
2026-04-25 18:31 -37.25201 -62.83520 37990 ft 392 kts 241°
2026-04-25 18:32 -37.28208 -62.89221 37987 ft 392 kts 241°
2026-04-25 18:32 -37.31213 -62.94925 37996 ft 393 kts 241°
2026-04-25 18:33 -37.34226 -63.00646 37988 ft 394 kts 240°
2026-04-25 18:33 -37.37970 -63.05757 37983 ft 401 kts 232°
2026-04-25 18:34 -37.41844 -63.10778 37990 ft 402 kts 231°
2026-04-25 18:34 -37.45738 -63.15807 37991 ft 402 kts 231°
2026-04-25 18:35 -37.49629 -63.20838 37990 ft 402 kts 231°
2026-04-25 18:35 -37.53527 -63.25886 37990 ft 403 kts 231°
2026-04-25 18:36 -37.57426 -63.30942 37994 ft 403 kts 231°
2026-04-25 18:36 -37.61325 -63.36006 37989 ft 403 kts 231°
2026-04-25 18:37 -37.65222 -63.41076 37989 ft 404 kts 231°
2026-04-25 18:37 -37.69120 -63.46155 37978 ft 404 kts 231°
2026-04-25 18:38 -37.73015 -63.51239 37982 ft 404 kts 231°
2026-04-25 18:38 -37.76907 -63.56328 37991 ft 403 kts 231°
2026-04-25 18:39 -37.80796 -63.61421 37995 ft 403 kts 231°
2026-04-25 18:39 -37.84682 -63.66517 37994 ft 403 kts 231°
2026-04-25 18:40 -37.88567 -63.71620 37992 ft 403 kts 231°
2026-04-25 18:40 -37.92439 -63.76716 37995 ft 402 kts 231°
2026-04-25 18:41 -37.96312 -63.81820 37991 ft 402 kts 231°
2026-04-25 18:41 -38.00178 -63.86923 37990 ft 402 kts 231°
2026-04-25 18:42 -38.03392 -63.91172 37992 ft 401 kts 231°
2026-04-25 18:42 -38.07886 -63.97123 37989 ft 401 kts 231°
2026-04-25 18:43 -38.11730 -64.02223 37990 ft 401 kts 231°
2026-04-25 18:43 -38.15573 -64.07329 37989 ft 400 kts 231°
2026-04-25 18:44 -38.19411 -64.12436 37988 ft 400 kts 231°
2026-04-25 18:44 -38.23243 -64.17544 37983 ft 400 kts 231°
2026-04-25 18:45 -38.27072 -64.22657 37979 ft 400 kts 231°
2026-04-25 18:45 -38.30897 -64.27773 37971 ft 400 kts 231°
2026-04-25 18:46 -38.34718 -64.32892 37980 ft 400 kts 231°
2026-04-25 18:46 -38.38537 -64.38017 37981 ft 399 kts 231°
2026-04-25 18:47 -38.42356 -64.43148 37972 ft 400 kts 231°
2026-04-25 18:47 -38.46171 -64.48284 37971 ft 399 kts 231°
2026-04-25 18:48 -38.49980 -64.53420 37973 ft 399 kts 231°
2026-04-25 18:48 -38.53787 -64.58563 37978 ft 399 kts 231°
2026-04-25 18:49 -38.57591 -64.63709 37980 ft 399 kts 231°
2026-04-25 18:49 -38.61393 -64.68860 37977 ft 399 kts 231°
2026-04-25 18:50 -38.65192 -64.74018 37984 ft 399 kts 231°
2026-04-25 18:50 -38.68985 -64.79173 37981 ft 398 kts 231°
2026-04-25 18:51 -38.72144 -64.83472 37983 ft 398 kts 231°
2026-04-25 18:51 -38.76557 -64.89488 37986 ft 398 kts 231°
2026-04-25 18:52 -38.80338 -64.94656 37982 ft 398 kts 231°
2026-04-25 18:52 -38.84109 -64.99825 37976 ft 397 kts 231°
2026-04-25 18:53 -38.87873 -65.04988 37979 ft 397 kts 231°
2026-04-25 18:53 -38.91636 -65.10158 37979 ft 397 kts 231°
2026-04-25 18:54 -38.97275 -65.17921 37976 ft 397 kts 231°
2026-04-25 18:55 -39.01026 -65.23096 37978 ft 396 kts 231°
2026-04-25 18:55 -39.04775 -65.28277 37980 ft 396 kts 231°
2026-04-25 18:56 -39.08519 -65.33459 37980 ft 396 kts 231°
2026-04-25 18:56 -39.12257 -65.38642 37977 ft 396 kts 231°
2026-04-25 18:57 -39.15993 -65.43831 37978 ft 396 kts 231°
2026-04-25 18:57 -39.19726 -65.49024 37974 ft 395 kts 231°
2026-04-25 18:58 -39.23451 -65.54216 37976 ft 395 kts 231°
2026-04-25 18:58 -39.29041 -65.62019 37969 ft 395 kts 231°
2026-04-25 18:59 -39.36480 -65.72430 37970 ft 395 kts 231°
2026-04-25 19:00 -39.42047 -65.80244 37972 ft 395 kts 232°
2026-04-25 19:01 -39.47612 -65.88074 37972 ft 395 kts 232°
2026-04-25 19:01 -39.51313 -65.93293 37974 ft 394 kts 232°
2026-04-25 19:02 -39.56851 -66.01119 37973 ft 394 kts 232°
2026-04-25 19:03 -39.61157 -66.07217 37969 ft 394 kts 232°
2026-04-25 19:03 -39.66071 -66.14192 37973 ft 394 kts 232°
2026-04-25 19:04 -39.71594 -66.22050 37966 ft 393 kts 232°
2026-04-25 19:05 -39.78940 -66.32532 37965 ft 393 kts 232°
2026-04-25 19:06 -39.82604 -66.37774 37965 ft 392 kts 232°
2026-04-25 19:06 -39.88090 -66.45639 37966 ft 392 kts 232°
2026-04-25 19:07 -39.93570 -66.53517 37950 ft 392 kts 232°
2026-04-25 19:08 -39.99047 -66.61410 37965 ft 392 kts 232°
2026-04-25 19:09 -40.05736 -66.71077 37957 ft 393 kts 232°
2026-04-25 19:10 -40.11816 -66.79891 37945 ft 393 kts 232°
2026-04-25 19:10 -40.15468 -66.85196 37954 ft 393 kts 232°
2026-04-25 19:11 -40.19117 -66.90508 37949 ft 394 kts 232°
2026-04-25 19:11 -40.22765 -66.95826 37933 ft 394 kts 232°
2026-04-25 19:12 -40.26413 -67.01155 37922 ft 394 kts 232°
2026-04-25 19:12 -40.30062 -67.06493 37923 ft 394 kts 232°
2026-04-25 19:13 -40.33712 -67.11840 37923 ft 395 kts 232°
2026-04-25 19:13 -40.37362 -67.17197 37912 ft 395 kts 232°
2026-04-25 19:14 -40.41012 -67.22568 37908 ft 395 kts 232°
2026-04-25 19:14 -40.44666 -67.27953 37901 ft 396 kts 232°
2026-04-25 19:15 -40.48320 -67.33344 37897 ft 396 kts 232°
2026-04-25 19:15 -40.51976 -67.38748 37892 ft 397 kts 232°
2026-04-25 19:16 -40.55637 -67.44168 37894 ft 397 kts 232°
2026-04-25 19:16 -40.59297 -67.49597 37881 ft 398 kts 232°
2026-04-25 19:17 -40.62960 -67.55041 37886 ft 398 kts 232°
2026-04-25 19:17 -40.66621 -67.60490 37885 ft 398 kts 232°
2026-04-25 19:18 -40.70277 -67.65943 37888 ft 398 kts 232°
2026-04-25 19:18 -40.73935 -67.71408 37884 ft 398 kts 232°
2026-04-25 19:19 -40.77592 -67.76883 37887 ft 398 kts 232°
2026-04-25 19:19 -40.81245 -67.82359 37888 ft 399 kts 232°
2026-04-25 19:20 -40.84900 -67.87850 37890 ft 398 kts 232°
2026-04-25 19:20 -40.88546 -67.93337 37893 ft 398 kts 232°
2026-04-25 19:21 -40.92184 -67.98822 37889 ft 397 kts 232°
2026-04-25 19:21 -40.97627 -68.07047 37894 ft 397 kts 232°
2026-04-25 19:22 -41.01248 -68.12531 37910 ft 396 kts 232°
2026-04-25 19:23 -41.06661 -68.20747 37901 ft 395 kts 232°
2026-04-25 19:23 -41.12048 -68.28947 37905 ft 393 kts 232°
2026-04-25 19:24 -41.15625 -68.34404 37905 ft 392 kts 232°
2026-04-25 19:25 -41.22734 -68.45279 37911 ft 390 kts 232°
2026-04-25 19:25 -41.26273 -68.50707 37906 ft 388 kts 232°
2026-04-25 19:26 -41.29795 -68.56118 37915 ft 387 kts 232°
2026-04-25 19:26 -41.33301 -68.61515 37913 ft 386 kts 232°
2026-04-25 19:27 -41.36215 -68.66009 37914 ft 385 kts 232°
2026-04-25 19:27 -41.40278 -68.72285 37911 ft 384 kts 232°
2026-04-25 19:28 -41.43753 -68.77663 37910 ft 383 kts 232°
2026-04-25 19:28 -41.47219 -68.83036 37910 ft 383 kts 232°
2026-04-25 19:29 -41.50673 -68.88401 37907 ft 382 kts 232°
2026-04-25 19:29 -41.54117 -68.93760 37914 ft 381 kts 232°
2026-04-25 19:30 -41.57566 -68.99137 37896 ft 383 kts 233°
2026-04-25 19:30 -41.61027 -69.04541 37901 ft 384 kts 233°
2026-04-25 19:31 -41.62747 -69.07228 37397 ft 380 kts 233°
2026-04-25 19:31 -41.64463 -69.09914 36732 ft 380 kts 232°
2026-04-25 19:31 -41.66161 -69.12574 36292 ft 374 kts 232°
2026-04-25 19:31 -41.67835 -69.15199 35805 ft 370 kts 232°
2026-04-25 19:32 -41.69499 -69.17808 35315 ft 368 kts 232°
2026-04-25 19:32 -41.71150 -69.20400 34804 ft 366 kts 232°
2026-04-25 19:32 -41.72793 -69.22981 34305 ft 364 kts 232°
2026-04-25 19:32 -41.73885 -69.24698 33974 ft 363 kts 232°
2026-04-25 19:33 -41.76057 -69.28116 33215 ft 361 kts 232°
2026-04-25 19:33 -41.77675 -69.30666 32694 ft 359 kts 232°
2026-04-25 19:33 -41.79280 -69.33196 32225 ft 356 kts 232°
2026-04-25 19:33 -41.80874 -69.35711 31748 ft 353 kts 232°
2026-04-25 19:34 -41.82455 -69.38215 31194 ft 353 kts 232°
2026-04-25 19:34 -41.84032 -69.40712 30735 ft 350 kts 232°
2026-04-25 19:34 -41.85595 -69.43187 30307 ft 347 kts 232°
2026-04-25 19:34 -41.87146 -69.45645 29830 ft 345 kts 232°
2026-04-25 19:35 -41.88687 -69.48087 29298 ft 343 kts 232°
2026-04-25 19:35 -41.90217 -69.50515 28844 ft 339 kts 232°
2026-04-25 19:35 -41.91730 -69.52917 28386 ft 336 kts 232°
2026-04-25 19:35 -41.93229 -69.55300 27942 ft 333 kts 232°
2026-04-25 19:36 -41.94712 -69.57658 27506 ft 330 kts 233°
2026-04-25 19:36 -41.96182 -69.59998 27077 ft 327 kts 233°
2026-04-25 19:36 -41.97643 -69.62324 26657 ft 325 kts 233°
2026-04-25 19:36 -41.99091 -69.64633 26242 ft 323 kts 233°
2026-04-25 19:37 -42.00531 -69.66930 25825 ft 321 kts 233°
2026-04-25 19:37 -42.01961 -69.69214 25428 ft 319 kts 233°
2026-04-25 19:37 -42.03382 -69.71483 25028 ft 317 kts 233°
2026-04-25 19:37 -42.04796 -69.73745 24629 ft 315 kts 233°
2026-04-25 19:38 -42.06200 -69.75991 24242 ft 314 kts 233°
2026-04-25 19:38 -42.07598 -69.78231 23859 ft 312 kts 233°
2026-04-25 19:38 -42.08989 -69.80459 23472 ft 311 kts 233°
2026-04-25 19:38 -42.10372 -69.82677 23051 ft 309 kts 234°
2026-04-25 19:39 -42.11749 -69.84888 22638 ft 307 kts 233°
2026-04-25 19:39 -42.13113 -69.87078 22263 ft 304 kts 234°
2026-04-25 19:39 -42.14464 -69.89249 21909 ft 301 kts 233°
2026-04-25 19:39 -42.15800 -69.91398 21558 ft 298 kts 234°
2026-04-25 19:40 -42.17118 -69.93520 21215 ft 295 kts 234°
2026-04-25 19:40 -42.18425 -69.95625 20871 ft 292 kts 234°
2026-04-25 19:40 -42.19716 -69.97706 20537 ft 288 kts 234°
2026-04-25 19:40 -42.20994 -69.99767 20202 ft 286 kts 234°
2026-04-25 19:41 -42.22259 -70.01810 19881 ft 283 kts 234°
2026-04-25 19:41 -42.23511 -70.03832 19557 ft 280 kts 234°
2026-04-25 19:41 -42.24749 -70.05834 19241 ft 277 kts 234°
2026-04-25 19:41 -42.25161 -70.06500 19130 ft 277 kts 234°
2026-04-25 19:42 -42.27195 -70.09790 18600 ft 273 kts 233°
2026-04-25 19:42 -42.28403 -70.11748 18293 ft 271 kts 233°
2026-04-25 19:42 -42.29600 -70.13686 17948 ft 269 kts 233°
2026-04-25 19:42 -42.30789 -70.15614 17611 ft 266 kts 233°
2026-04-25 19:43 -42.31969 -70.17529 17287 ft 266 kts 233°
2026-04-25 19:43 -42.33160 -70.19464 16972 ft 271 kts 233°
2026-04-25 19:43 -42.34369 -70.21428 16657 ft 273 kts 233°
2026-04-25 19:43 -42.35581 -70.23400 16343 ft 272 kts 233°
2026-04-25 19:44 -42.36788 -70.25364 16038 ft 271 kts 233°
2026-04-25 19:44 -42.37986 -70.27315 15723 ft 269 kts 233°
2026-04-25 19:44 -42.39170 -70.29242 15416 ft 265 kts 233°
2026-04-25 19:44 -42.40332 -70.31137 15113 ft 260 kts 233°
2026-04-25 19:45 -42.41476 -70.33003 14823 ft 257 kts 233°
2026-04-25 19:45 -42.42610 -70.34854 14527 ft 255 kts 233°
2026-04-25 19:45 -42.43734 -70.36690 14227 ft 253 kts 233°
2026-04-25 19:45 -42.44845 -70.38507 13943 ft 250 kts 233°
2026-04-25 19:46 -42.45948 -70.40309 13640 ft 248 kts 233°
2026-04-25 19:46 -42.47037 -70.42092 13324 ft 246 kts 233°
2026-04-25 19:46 -42.48139 -70.43896 13021 ft 252 kts 233°
2026-04-25 19:46 -42.49260 -70.45734 12697 ft 255 kts 233°
2026-04-25 19:47 -42.50387 -70.47581 12430 ft 254 kts 233°
2026-04-25 19:47 -42.51514 -70.49428 12128 ft 254 kts 233°
2026-04-25 19:47 -42.52635 -70.51268 11826 ft 253 kts 233°
2026-04-25 19:47 -42.53747 -70.53094 11550 ft 252 kts 233°
2026-04-25 19:48 -42.54858 -70.54918 11231 ft 250 kts 233°
2026-04-25 19:48 -42.55946 -70.56706 11049 ft 242 kts 234°
2026-04-25 19:48 -42.56993 -70.58431 10844 ft 235 kts 234°
2026-04-25 19:48 -42.58020 -70.60128 10549 ft 232 kts 234°
2026-04-25 19:49 -42.59033 -70.61800 10293 ft 228 kts 234°
2026-04-25 19:49 -42.59366 -70.62350 10213 ft 226 kts 234°
2026-04-25 19:49 -42.60966 -70.64992 10074 ft 208 kts 234°
2026-04-25 19:49 -42.61867 -70.66481 9898 ft 203 kts 234°
2026-04-25 19:50 -42.63714 -70.69539 9389 ft 216 kts 234°
2026-04-25 19:50 -42.64664 -70.71112 9138 ft 216 kts 234°
2026-04-25 19:50 -42.65615 -70.72687 8880 ft 216 kts 234°
2026-04-25 19:52 -42.71941 -70.82971 7356 ft 189 kts 235°
2026-04-25 19:52 -42.72780 -70.84322 7152 ft 186 kts 235°
2026-04-25 19:53 -42.73622 -70.85615 6976 ft 183 kts 228°
2026-04-25 19:53 -42.74708 -70.86578 6832 ft 189 kts 221°
2026-04-25 19:53 -42.75829 -70.87509 6673 ft 189 kts 221°
2026-04-25 19:53 -42.76954 -70.88447 6593 ft 191 kts 221°
2026-04-25 19:54 -42.78083 -70.89385 6433 ft 190 kts 221°
2026-04-25 19:54 -42.79174 -70.90373 6323 ft 184 kts 233°
2026-04-25 19:54 -42.79900 -70.91749 6111 ft 180 kts 242°
2026-04-25 19:54 -42.80368 -70.92696 5943 ft 183 kts 240°
2026-04-25 19:55 -42.81330 -70.94576 5672 ft 178 kts 242°
2026-04-25 19:55 -42.82008 -70.95953 5460 ft 174 kts 242°
2026-04-25 19:55 -42.82662 -70.97317 5242 ft 171 kts 243°
2026-04-25 19:55 -42.83297 -70.98645 5063 ft 164 kts 244°
2026-04-25 19:56 -42.83899 -70.99906 4827 ft 152 kts 244°
2026-04-25 19:56 -42.84478 -71.01125 4615 ft 155 kts 244°
2026-04-25 19:56 -42.85024 -71.02270 4398 ft 134 kts 244°
2026-04-25 19:56 -42.85509 -71.03293 4216 ft 125 kts 244°
2026-04-25 19:57 -42.85977 -71.04296 3994 ft 126 kts 241°
2026-04-25 19:57 -42.86460 -71.05315 3772 ft 131 kts 239°
2026-04-25 19:57 -42.86963 -71.06363 3581 ft 133 kts 238°
2026-04-25 19:57 -42.87464 -71.07416 3411 ft 132 kts 238°
2026-04-25 19:58 -42.87964 -71.08468 3237 ft 133 kts 237°
2026-04-25 19:58 -42.88469 -71.09533 3080 ft 134 kts 237°
2026-04-25 19:58 -42.88977 -71.10598 2887 ft 135 kts 239°
2026-04-25 19:58 -42.89485 -71.11672 2736 ft 134 kts 238°
2026-04-25 19:59 -42.89982 -71.12705 2650 ft 120 kts 238°
2026-04-25 19:59 -42.90368 -71.13511 2641 ft 76 kts 238°
2026-04-25 19:59 -42.90519 -71.13842 2639 ft 10 kts 237°
2026-04-25 19:59 -42.90572 -71.13953 2639 ft 17 kts 238°
2026-04-25 20:00 -42.90642 -71.14105 2638 ft 21 kts 238°
2026-04-25 20:00 -42.90684 -71.14193 2639 ft 11 kts 234°
2026-04-25 20:00 -42.90713 -71.14259 2639 ft 7 kts 249°
2026-04-25 20:00 -42.90726 -71.14335 2639 ft 10 kts 258°
2026-04-25 20:01 -42.90741 -71.14522 2639 ft 8 kts 270°
2026-04-25 20:01 -42.90709 -71.14593 2639 ft 10 kts 315°
2026-04-25 20:01 -42.90689 -71.14644 2639 ft 4 kts 257°
2026-04-25 20:02 -42.90679 -71.14670 2639 ft 3 kts 319°
2026-04-25 20:02 -42.90669 -71.14678 2639 ft 0 kts 327°
2026-04-25 20:02 -42.90668 -71.14678 2639 ft 0 kts 327°